Location: Moena
(46.3667°N, 11.6500°E)
Time: 16:07:14
(UTC+00:00)

Cosmos 2219 Rocket - Pass Details

Date: 03 March 2021
Orbit: 826 x 848 km, 71.0° (Epoch: 17 April)

Event Time Altitude Azimuth Distance (km) Brightness Sun altitude
Rises 21:08:57 0° 254° (WSW) 3,364 5.7 -40.5°
Reaches altitude 10° 21:12:05 10° 271° (W) 2,437 5.0 -40.9°
Maximum altitude 21:16:02 19° 317° (NW) 1,869 4.5 -41.4°
Drops below altitude 10° 21:20:02 10° 2° (N) 2,455 5.0 -41.9°
Sets 21:23:13 0° 20° (NNE) 3,397 5.6 -42.3°
